Regional Weather Roundup
Issued by NWS Bismarck, ND

Home | Current Version | Previous Version | Text Only | Print | Product List | Glossary On
Versions: 1 2 3 4 5 6 7 8 9 10 11 12 13 14 15 16 17 18 19 20 21 22 23 24 25 26 27 28 29 30 31 32 33 34 35 36 37 38 39 40 41 42 43 44 45 46 47 48 49 50
000
ASUS43 KBIS 250720
RWRBIS

NWR BROADCAST TEXT
NATIONAL WEATHER SERVICE BISMARCK ND
200 AM CDT FRI APR 25 2014

NOTE: "FAIR" INDICATES FEW OR NO CLOUDS BELOW 12,000 FEET WITH NO
SIGNIFICANT WEATHER AND/OR OBSTRUCTIONS TO VISIBILITY.


CITY           SKY/WX    TMP DP  RH WIND       PRES   REMARKS
WILLISTON      MOCLDY    34  28  79 CALM      29.71S
MINOT          CLEAR     38  31  76 SW12      29.70R
MINOT AFB      CLEAR     37  32  83 NW2       29.69S
BISMARCK       MOCLDY    37  28  70 W3        29.76R
DICKINSON      MOCLDY    40  28  62 W7        29.73F
GARRISON         N/A     33  27  78 S6        29.72R
HETTINGER ARPT PTCLDY    39  27  62 CALM      29.78S
JAMESTOWN      CLEAR     36  33  89 W6        29.72S
CARRINGTON       N/A     34  34 100 W8        29.73S
CROSBY           N/A     32  32 100 MISG        N/A
HARVEY         FAIR      34  34 100 S5        29.72S FOG
HAZEN          FAIR      30  25  80 W5        29.75S
LINTON         FAIR      32  30  93 CALM      29.77R
MANDAN         CLOUDY    39  27  60 SW9       29.76R
OAKES          FAIR      36  36 100 W7        29.74S
RUGBY          FAIR      37  37 100 S8        29.70S FOG
STANLEY        FAIR      32  30  93 W5        29.71S
TIOGA          FAIR      28  28 100 CALM      29.74S
WATFORD CITY   CLOUDY    34  27  75 CALM      29.71S
$$

CITY           SKY/WX    TMP DP  RH WIND       PRES   REMARKS
GRAND FORKS    CLOUDY    37  37 100 CALM      29.72S FOG
GRAND FORKS AF FOG       39  39 100 CALM      29.73S VSB 3/4
DEVILS LAKE    CLOUDY    36  30  80 SW5       29.72S VSB<1/4
FARGO          FOG       41  40  96 NW5       29.72S VSB 1/4
CANDO          FOG       36  36 100 S3        29.72S VSB<1/4
CAVALIER       FOG       36  36 100 NE5       29.75R VSB 3/4
GRAFTON        CLOUDY    36  36 100 N6        29.73S FOG
GWINNER        SUNNY     36  36 100 W9        29.74F
LANGDON        CLOUDY    39  37  93 NE3       29.71S FOG
ROLLA          FOG       37  37 100 W10       29.71S VSB 3/4
WALHALLA       FOG       36  36 100 N3        29.75R VSB 1
$$

CITY           SKY/WX    TMP DP  RH WIND       PRES   REMARKS
ABERDEEN       CLOUDY    39  32  76 NW5       29.76S
MOBRIDGE       CLOUDY    45  30  55 CALM      29.75R
BUFFALO          N/A     43  31  62 W7        29.74R
RAPID CITY     CLOUDY    39  28  64 W5        29.82R
GLASGOW        PTCLDY    44  33  65 W6        29.72S
SIDNEY         CLOUDY    50  30  46 W12       29.74S
WOLF POINT     CLOUDY    45  29  53 SW5       29.72S
GLENDIVE       CLOUDY    45  34  65 SW5       29.76S
MILES CITY     CLEAR     41  34  76 S7        29.76F
BAKER          MOCLDY    40  31  70 S3        29.77F
$$

CITY           SKY/WX    TMP DP  RH WIND       PRES   REMARKS
BILLINGS       CLEAR     45  34  65 SW12      29.80S
GREAT FALLS    PTCLDY    43  29  57 SW14      29.75S
REGINA         CLEAR     34  34 100 SW6       29.73R
ESTEVAN        PTCLDY    34  32  93 NE6       29.72R
$$




USA.gov is the U.S. government's official web portal to all federal, state and local government web resources and services.